User: anonymous   Login
Location: Unspecified
(0.0000°N, 0.0000°E)
Time: 00:47:49
(UTC+00:00)
Language:

USA 253 - Orbit

View from above orbital plane
View from above orbital plane
View from above satellite
View from above satellite

Ground track
Ground track

The orbit data is extracted from the following two-line orbital elements,

1 40099U 14043A   23079.28059816 -.00000158  00000-0  00000+0 0  9998
2 40099   2.3453  89.4539 0003835 359.9699 329.5541  0.96765867  6614
Epoch (UTC): 20 March 2023 06:44:03
Eccentricity: 0.0003835
inclination: 2.3453°
perigee height: 36782 km
apogee height: 36815 km
right ascension of ascending node: 89.4539°
argument of perigee: 359.9699°
revolutions per day: 0.96765867
mean anomaly at epoch: 329.5541°
orbit number at epoch: 661

The dashed part of the orbit path shows where the satellite is in the earth's shadow,  

DLR